W0KHZ Weather Reports


Display with metric or nautical units.
time (UTC)temp
F
wind
direction
speed
MPH
gust
MPH
rain 1hr
in
rain 24hr
in
rain mn
in
humidity
%
barometer
mb
20260510211531 63 325 2.0 7.0 0.00 0.00 0.00 36 1016.5
20260510211028 64 326 2.0 6.0 0.00 0.00 0.00 36 1016.5
20260510210525 64 331 2.0 4.0 0.00 0.00 0.00 35 1016.6
20260510210022 65 318 3.0 17.0 0.00 0.00 0.00 35 1016.6
20260510205520 65 319 3.0 7.0 0.00 0.00 0.00 34 1016.5
20260510205016 65 320 3.0 10.0 0.00 0.00 0.00 35 1016.5
20260510204533 64 331 3.0 7.0 0.00 0.00 0.00 35 1016.5
20260510204030 65 307 5.0 18.0 0.00 0.00 0.00 34 1016.4
20260510203527 65 333 3.0 7.0 0.00 0.00 0.00 35 1016.6
20260510203023 65 314 4.0 9.0 0.00 0.00 0.00 34 1016.6
20260510202521 65 324 3.0 9.0 0.00 0.00 0.00 35 1016.6
20260510202017 64 331 3.0 10.0 0.00 0.00 0.00 34 1016.8
20260510201533 64 321 5.0 13.0 0.00 0.00 0.00 34 1016.5
20260510201109 64 321 3.0 14.0 0.00 0.00 0.00 35 1016.7
20260510200526 64 339 4.0 15.0 0.00 0.00 0.00 34 1016.9
20260510200043 65 318 5.0 21.0 0.00 0.00 0.00 34 1016.9
20260510195520 64 314 3.0 9.0 0.00 0.00 0.00 35 1016.9
20260510195017 64 305 4.0 18.0 0.00 0.00 0.00 34 1017.0
20260510194553 64 317 5.0 11.0 0.00 0.00 0.00 35 1016.9
20260510194030 64 310 4.0 13.0 0.00 0.00 0.00 35 1017.1
20260510193526 64 328 3.0 9.0 0.00 0.00 0.00 35 1016.8
20260510193023 64 341 4.0 8.0 0.00 0.00 0.00 36 1017.0
20260510192520 63 328 4.0 14.0 0.00 0.00 0.00 37 1017.0
20260510192016 62 295 3.0 8.0 0.00 0.00 0.00 37 1017.1
20260510191533 62 287 3.0 9.0 0.00 0.00 0.00 36 1017.1
20260510191030 62 314 3.0 10.0 0.00 0.00 0.00 36 1017.1
20260510190527 62 327 3.0 11.0 0.00 0.00 0.00 37 1017.2
20260510190024 62 335 3.0 14.0 0.00 0.00 0.00 36 1017.1
20260510185521 62 336 2.0 3.0 0.00 0.00 0.00 38 1017.2
20260510185019 62 305 2.0 10.0 0.00 0.00 0.00 37 1017.2
20260510184534 63 315 3.0 13.0 0.00 0.00 0.00 36 1017.3
20260510184031 63 326 3.0 10.0 0.00 0.00 0.00 37 1017.2
20260510183528 63 325 2.0 8.0 0.00 0.00 0.00 36 1017.1
20260510183024 64 324 3.0 10.0 0.00 0.00 0.00 36 1017.4
20260510182522 64 309 4.0 10.0 0.00 0.00 0.00 36 1017.2
20260510182019 64 327 3.0 9.0 0.00 0.00 0.00 37 1017.3
20260510181534 64 310 2.0 6.0 0.00 0.00 0.00 37 1017.4
20260510181031 63 172 3.0 10.0 0.00 0.00 0.00 38 1017.3
20260510180528 63 305 2.0 9.0 0.00 0.00 0.00 38 1017.4
20260510180025 62 307 1.0 4.0 0.00 0.00 0.00 38 1017.3
20260510175523 62 315 2.0 7.0 0.00 0.00 0.00 38 1017.4
20260510175019 62 301 2.0 6.0 0.00 0.00 0.00 38 1017.3
20260510174535 62 329 2.0 11.0 0.00 0.00 0.00 36 1017.5
20260510174051 63 312 3.0 9.0 0.00 0.00 0.00 37 1017.4
20260510173528 63 322 3.0 7.0 0.00 0.00 0.00 37 1017.4
20260510173025 63 299 3.0 10.0 0.00 0.00 0.00 38 1017.4
20260510172522 62 337 4.0 10.0 0.00 0.00 0.00 38 1017.4
20260510172039 62 312 3.0 10.0 0.00 0.00 0.00 38 1017.3
20260510171535 62 329 5.0 14.0 0.00 0.00 0.00 38 1017.4
20260510171032 62 292 3.0 8.0 0.00 0.00 0.00 38 1017.3
20260510170529 61 303 3.0 9.0 0.00 0.00 0.00 37 1017.6
20260510170025 61 310 3.0 10.0 0.00 0.00 0.00 38 1017.6
20260510165542 61 313 3.0 15.0 0.00 0.00 0.00 38 1017.5
20260510165020 61 327 3.0 11.0 0.00 0.00 0.00 39 1017.5
20260510164536 60 328 3.0 13.0 0.00 0.00 0.00 37 1017.5
20260510164032 60 342 4.0 10.0 0.00 0.00 0.00 37 1017.5
20260510163549 60 331 4.0 11.0 0.00 0.00 0.00 39 1017.4
20260510163026 60 317 4.0 11.0 0.00 0.00 0.00 39 1017.4
20260510162523 59 313 3.0 14.0 0.00 0.00 0.00 39 1017.4
20260510162020 59 310 3.0 13.0 0.00 0.00 0.00 41 1017.3
20260510161538 59 1 2.0 4.0 0.00 0.00 0.00 41 1017.4
20260510161034 59 316 1.0 4.0 0.00 0.00 0.00 41 1017.5
20260510160531 59 330 2.0 7.0 0.00 0.00 0.00 40 1017.4
20260510160029 59 297 3.0 10.0 0.00 0.00 0.00 41 1017.4
20260510155526 59 308 2.0 7.0 0.00 0.00 0.00 41 1017.4
20260510155023 59 309 2.0 7.0 0.00 0.00 0.00 43 1017.3
20260510154520 60 276 2.0 8.0 0.00 0.00 0.00 44 1017.3
20260510154018 60 154 2.0 7.0 0.00 0.00 0.00 46 1017.2
20260510153553 60 255 1.0 4.0 0.00 0.00 0.00 45 1017.2
20260510153030 59 289 1.0 4.0 0.00 0.00 0.00 47 1017.2
20260510152527 59 328 1.0 3.0 0.00 0.00 0.00 48 1017.4
20260510152023 58 253 1.0 6.0 0.00 0.00 0.00 47 1017.3
20260510151521 58 303 1.0 4.0 0.00 0.00 0.00 46 1017.2
20260510151018 58 306 2.0 9.0 0.00 0.00 0.00 46 1017.3
20260510150534 57 320 2.0 4.0 0.00 0.00 0.00 46 1017.3